[[{"header":{"parameterUnit":"m.s-1","parameterCategory":1,"la1":30.2991,"la2":30.254,"lo1":-89.0895,"lo2":-89.0444,"dy":0.0017,"dx":0.0017,"nx":28,"ny":28,"refTime":"2023-08-26T09:00:00:Z","depth":0,"parameterNumber":2,"parameterNumberName":"U-component_of_WINDS"},"data":[0,0,0,0,0,0,0,0,0,0,0,0,0,0,0,0,0,0,0,0,0,0,0,0,0,0,0,0,0,0,0,0,0,0,0,0,0,0,0,0,0,0,0,0,0,0,0,0,0,0,0,0,0,0,0,0,0,0,-1.2483,-1.2483,0,-1.2469,-1.2469,-1.2468,-1.2474,-1.2475,-1.2475,-1.2475,-1.2458,-1.2457,-1.2456,0,0,0,0,0,0,0,0,0,0,0,0,0,-1.2512,-1.2511,-1.2483,-1.2483,-1.2483,-1.2469,-1.2469,-1.2468,-1.2474,-1.2475,-1.2475,-1.2476,-1.2458,-1.2457,-1.2456,0,0,0,0,0,0,0,0,0,0,0,0,0,-1.2498,-1.2511,-1.2483,-1.2484,-1.2484,-1.2469,-1.2469,-1.2468,-1.2474,-1.2475,-1.2475,-1.2476,-1.2458,-1.2457,-1.2456,-1.2438,0,0,-1.2452,-1.2452,0,0,0,0,0,0,0,0,-1.2499,-1.2497,-1.2484,-1.2484,-1.2484,-1.2474,-1.2472,-1.2458,-1.2474,-1.2478,-1.2475,-1.2476,-1.2462,-1.2461,-1.2457,-1.2437,-1.2436,-1.2452,-1.2451,-1.2451,-1.245,0,0,0,0,0,0,0,-1.25,-1.2498,-1.2478,-1.2484,-1.2484,-1.2484,-1.2483,-1.2469,-1.2467,-1.2478,-1.2478,-1.2476,-1.2462,-1.2458,-1.2457,-1.2436,-1.2452,-1.2451,-1.245,-1.245,-1.2397,-1.2396,0,0,0,0,0,0,-1.2502,-1.2499,-1.2478,-1.2477,-1.2493,-1.2483,-1.2482,-1.2477,-1.2467,-1.2467,-1.2476,-1.2477,-1.246,-1.2458,-1.2456,-1.2432,-1.2451,-1.245,-1.2449,-1.2397,-1.2397,-1.2396,0,0,0,0,0,0,-1.2502,-1.25,-1.2479,-1.2488,-1.2485,-1.2482,-1.2476,-1.2476,-1.2472,-1.2466,-1.2466,-1.2472,-1.246,-1.2458,-1.2442,-1.2431,-1.2449,-1.2448,-1.2398,-1.2397,-1.2396,-1.2385,0,0,0,0,0,0,-1.2503,-1.25,-1.2494,-1.2488,-1.2485,-1.2466,-1.2476,-1.2475,-1.247,-1.2471,-1.2462,-1.2462,-1.246,-1.2443,-1.244,-1.243,-1.2447,-1.2399,-1.2398,-1.2396,-1.2386,-1.2383,-1.2381,0,0,0,0,0,-1.2504,-1.2492,-1.2494,-1.2491,-1.2478,-1.2465,-1.2463,-1.2463,-1.2469,-1.2462,-1.2458,-1.2462,-1.2433,-1.2442,-1.2438,-1.2427,-1.24,-1.2398,-1.2397,-1.2387,-1.2384,-1.2381,0,0,0,0,0,0,-1.2496,-1.2491,-1.2493,-1.2479,-1.2473,-1.2466,-1.2458,-1.246,-1.2452,-1.2453,-1.2452,-1.245,-1.2433,-1.2429,-1.2438,-1.2408,-1.2417,-1.2415,-1.2411,-1.2408,-1.2405,-1.2406,-1.2446,0,0,0,0,0,-1.2493,-1.2485,-1.248,-1.2468,-1.2464,-1.2462,-1.2456,-1.2457,-1.245,-1.2447,-1.2442,-1.2434,-1.2422,-1.2415,-1.2405,-1.2386,-1.2382,-1.2376,-1.2374,-1.2372,-1.2369,-1.2355,-1.2351,-1.2391,-1.2391,-1.2391,0,0,-1.2486,-1.2482,-1.2477,-1.2466,-1.2461,-1.245,-1.2459,-1.2449,-1.244,-1.2445,-1.2429,-1.2425,-1.2415,-1.2397,-1.2389,-1.2393,-1.2358,-1.237,-1.2368,-1.2367,-1.2353,-1.2349,-1.2346,-1.239,-1.239,-1.239,0,0,-1.2468,-1.2465,-1.2453,-1.2448,-1.244,-1.2438,-1.2435,-1.2428,-1.2426,-1.241,-1.2412,-1.2401,-1.2383,-1.2375,-1.2369,-1.2345,-1.2347,-1.2342,-1.2329,-1.2315,-1.2312,-1.2309,-1.2297,-1.2294,-1.234,-1.234,-1.234,0,-1.2459,-1.2445,-1.2446,-1.2434,-1.2428,-1.2432,-1.2419,-1.2413,-1.2402,-1.2397,-1.2403,-1.2378,-1.2372,-1.235,-1.2344,-1.234,-1.2334,-1.2342,-1.2313,-1.231,-1.2307,-1.2296,-1.2292,-1.2339,-1.2339,-1.2339,-1.2339,0,-1.2434,-1.2424,-1.2415,-1.2404,-1.2397,-1.2385,-1.2382,-1.2374,-1.2375,-1.2371,-1.2353,-1.2346,-1.2333,-1.2328,-1.2329,-1.2305,-1.2308,-1.2313,-1.2322,-1.2302,-1.2292,-1.2288,-1.2338,-1.2338,-1.2338,-1.2339,0,0,-1.2411,-1.24,-1.2396,-1.239,-1.2381,-1.2372,-1.2359,-1.2346,-1.2338,-1.2331,-1.2317,-1.23,-1.2304,-1.2297,-1.2296,-1.2285,-1.2262,-1.229,-1.229,-1.2283,-1.2231,-1.2226,-1.2221,-1.2263,-1.2263,-1.2262,-1.2231,0,-1.2389,-1.2367,-1.2366,-1.2345,-1.2333,-1.2336,-1.2324,-1.2315,-1.2312,-1.23,-1.2295,-1.2282,-1.229,-1.2285,-1.2273,-1.2267,-1.2251,-1.227,-1.2248,-1.2247,-1.2248,-1.2216,-1.2211,-1.2182,-1.2227,-1.2226,-1.2226,0,-1.2362,-1.2353,-1.233,-1.232,-1.2315,-1.2305,-1.2291,-1.2281,-1.2271,-1.2269,-1.2259,-1.226,-1.2243,-1.2253,-1.2228,-1.2241,-1.2232,-1.2227,-1.2226,-1.2222,-1.2234,-1.2209,-1.2173,-1.2168,-1.222,-1.222,-1.2221,0,-1.2344,-1.2326,-1.2309,-1.2304,-1.2293,-1.2285,-1.2279,-1.227,-1.2261,-1.225,-1.2243,-1.223,-1.2222,-1.221,-1.2205,-1.2214,-1.2179,-1.219,-1.2174,-1.2173,-1.2165,-1.2165,-1.2125,-1.2163,-1.2163,-1.2163,-1.2164,0,-1.232,-1.2305,-1.2301,-1.229,-1.2273,-1.2271,-1.2253,-1.2248,-1.2239,-1.2226,-1.2227,-1.2214,-1.221,-1.2195,-1.2192,-1.2169,-1.2166,-1.2162,-1.216,-1.216,-1.216,-1.2153,-1.2154,-1.2162,-1.2163,-1.2163,-1.2163,0,-1.2296,-1.2294,-1.2275,-1.2265,-1.2262,-1.2249,-1.224,-1.2228,-1.2224,-1.2207,-1.2203,-1.2195,-1.2178,-1.2172,-1.2152,-1.2149,-1.2121,-1.2123,-1.2125,-1.2124,-1.2107,-1.2107,-1.2058,-1.205,-1.2097,-1.2096,-1.2096,0,-1.228,-1.2269,-1.2257,-1.2249,-1.2243,-1.223,-1.2221,-1.2218,-1.2209,-1.2194,-1.2183,-1.2166,-1.2152,-1.2124,-1.2115,-1.2098,-1.2097,-1.2081,-1.2095,-1.2094,-1.2093,-1.2093,-1.209,-1.2078,-1.2078,-1.2077,-1.2077,0,-1.225,-1.2249,-1.2237,-1.2223,-1.2212,-1.2202,-1.2191,-1.2183,-1.2179,-1.2167,-1.2149,-1.2139,-1.2116,-1.2098,-1.208,-1.2072,-1.2072,-1.2073,-1.2068,-1.2066,-1.2066,-1.2062,-1.2115,-1.2074,-1.2074,-1.2074,-1.2074,-1.2075,-1.2228,-1.2217,-1.2207,-1.2192,-1.2184,-1.2173,-1.216,-1.2154,-1.214,-1.2122,-1.2121,-1.2101,-1.2087,-1.2063,-1.2054,-1.2036,-1.204,-1.2034,-1.2031,-1.2029,-1.2026,-1.2071,-1.2033,-1.2033,-1.2033,-1.2033,-1.2033,0,-1.2196,-1.2189,-1.2176,-1.2161,-1.2148,-1.2151,-1.2139,-1.2127,-1.211,-1.2098,-1.2084,-1.2061,-1.2042,-1.2032,-1.2012,-1.2,-1.1999,-1.1994,-1.1994,-1.1991,-1.2025,-1.203,-1.1995,-1.1995,-1.1995,-1.1995,-1.1995,-1.1995,-1.2178,-1.2158,-1.2155,-1.2129,-1.2122,-1.2103,-1.2095,-1.2083,-1.2073,-1.2049,-1.2033,-1.2027,-1.2014,-1.1993,-1.1974,-1.1971,-1.1963,-1.1957,-1.1954,-1.1985,-1.1989,-1.1993,-1.1997,-1.1956,-1.1956,-1.1921,-1.192,-1.192]},{"header":{"parameterUnit":"m.s-1","parameterCategory":1,"la1":30.2991,"la2":30.254,"lo1":-89.0895,"lo2":-89.0444,"dy":0.0017,"dx":0.0017,"nx":28,"ny":28,"refTime":"2023-08-26T09:00:00:Z","depth":0,"parameterNumber":3,"parameterNumberName":"V-component_of_WINDS"},"data":[0,0,0,0,0,0,0,0,0,0,0,0,0,0,0,0,0,0,0,0,0,0,0,0,0,0,0,0,0,0,0,0,0,0,0,0,0,0,0,0,0,0,0,0,0,0,0,0,0,0,0,0,0,0,0,0,0,0,-1.0518,-1.0518,0,-1.0512,-1.0512,-1.0512,-1.0533,-1.0534,-1.0535,-1.0535,-1.0525,-1.0524,-1.0524,0,0,0,0,0,0,0,0,0,0,0,0,0,-1.0541,-1.054,-1.0518,-1.0518,-1.0518,-1.0512,-1.0512,-1.0512,-1.0533,-1.0534,-1.0535,-1.0536,-1.0525,-1.0524,-1.0523,0,0,0,0,0,0,0,0,0,0,0,0,0,-1.0533,-1.054,-1.0518,-1.0528,-1.0529,-1.0512,-1.0512,-1.0512,-1.0533,-1.0534,-1.0535,-1.0536,-1.0526,-1.0525,-1.0523,-1.0496,0,0,-1.0519,-1.0519,0,0,0,0,0,0,0,0,-1.0533,-1.0532,-1.0527,-1.0527,-1.0528,-1.0525,-1.0517,-1.0507,-1.0533,-1.0531,-1.0535,-1.0536,-1.0524,-1.0523,-1.052,-1.0496,-1.0495,-1.0519,-1.0518,-1.0518,-1.0517,0,0,0,0,0,0,0,-1.0534,-1.0532,-1.0516,-1.0526,-1.0527,-1.053,-1.053,-1.0515,-1.0522,-1.0532,-1.0533,-1.0532,-1.0525,-1.0521,-1.0519,-1.0495,-1.0519,-1.0518,-1.0517,-1.0517,-1.0443,-1.0442,0,0,0,0,0,0,-1.0534,-1.0532,-1.0516,-1.0516,-1.0533,-1.0529,-1.0529,-1.0525,-1.0522,-1.0523,-1.0532,-1.0533,-1.0523,-1.0521,-1.0519,-1.0484,-1.0518,-1.0517,-1.0516,-1.0444,-1.0443,-1.0442,0,0,0,0,0,0,-1.0534,-1.0532,-1.0516,-1.0524,-1.0523,-1.0528,-1.0523,-1.0524,-1.0521,-1.0523,-1.0523,-1.0527,-1.0523,-1.0521,-1.0501,-1.0484,-1.0516,-1.0515,-1.0446,-1.0444,-1.0442,-1.0415,0,0,0,0,0,0,-1.0535,-1.0532,-1.0523,-1.0524,-1.0522,-1.05,-1.0522,-1.0523,-1.0519,-1.0521,-1.0518,-1.0519,-1.0524,-1.0503,-1.05,-1.0483,-1.0514,-1.0447,-1.0445,-1.0443,-1.0417,-1.0412,-1.0408,0,0,0,0,0,-1.0535,-1.0516,-1.0523,-1.0521,-1.0512,-1.0499,-1.0498,-1.0505,-1.0517,-1.0507,-1.0508,-1.0519,-1.0487,-1.05,-1.0497,-1.048,-1.0448,-1.0445,-1.0443,-1.0419,-1.0413,-1.0408,0,0,0,0,0,0,-1.0512,-1.0516,-1.0524,-1.0505,-1.0501,-1.0503,-1.0491,-1.0499,-1.0492,-1.0494,-1.0502,-1.0501,-1.0478,-1.0477,-1.0493,-1.0451,-1.0469,-1.0466,-1.0452,-1.0447,-1.0442,-1.0442,-1.0513,0,0,0,0,0,-1.0505,-1.0496,-1.05,-1.0482,-1.048,-1.0485,-1.048,-1.0486,-1.0482,-1.0481,-1.048,-1.0475,-1.0463,-1.0455,-1.0445,-1.0417,-1.0415,-1.0403,-1.0399,-1.0395,-1.0391,-1.0372,-1.0366,-1.0433,-1.0433,-1.0433,0,0,-1.049,-1.0491,-1.0485,-1.0477,-1.0476,-1.0463,-1.0484,-1.0472,-1.0462,-1.0478,-1.0459,-1.0458,-1.0452,-1.0427,-1.0416,-1.0425,-1.0372,-1.0392,-1.0389,-1.0387,-1.0369,-1.0363,-1.0357,-1.0431,-1.0431,-1.0432,0,0,-1.0456,-1.0457,-1.0441,-1.0438,-1.0435,-1.0439,-1.0435,-1.0434,-1.0434,-1.0415,-1.0426,-1.0413,-1.0394,-1.0388,-1.0382,-1.0342,-1.035,-1.0339,-1.0314,-1.0296,-1.029,-1.0286,-1.0268,-1.0261,-1.0335,-1.0335,-1.0335,0,-1.0437,-1.0421,-1.0431,-1.0417,-1.0412,-1.0427,-1.0408,-1.0405,-1.0398,-1.0393,-1.0404,-1.0377,-1.0375,-1.0346,-1.0336,-1.0333,-1.0325,-1.0338,-1.0291,-1.0286,-1.0282,-1.0264,-1.0258,-1.0334,-1.0334,-1.0334,-1.0334,0,-1.0396,-1.0385,-1.0372,-1.0365,-1.0358,-1.0342,-1.0347,-1.0339,-1.0344,-1.0345,-1.0323,-1.032,-1.0307,-1.0302,-1.0308,-1.0273,-1.0278,-1.029,-1.0308,-1.0274,-1.0257,-1.0251,-1.0331,-1.0332,-1.0332,-1.0333,0,0,-1.0348,-1.0346,-1.034,-1.0336,-1.0332,-1.0322,-1.0305,-1.0294,-1.0284,-1.0278,-1.0262,-1.0243,-1.0253,-1.0247,-1.0251,-1.0235,-1.0199,-1.0248,-1.0248,-1.0236,-1.0155,-1.0145,-1.0137,-1.0205,-1.0204,-1.0203,-1.0155,0,-1.0312,-1.0284,-1.0291,-1.0263,-1.025,-1.0263,-1.0247,-1.0241,-1.0241,-1.0228,-1.0227,-1.0213,-1.0229,-1.0224,-1.0209,-1.0207,-1.0182,-1.021,-1.0186,-1.0185,-1.0184,-1.013,-1.0119,-1.0074,-1.0149,-1.0148,-1.0147,0,-1.0267,-1.0259,-1.0229,-1.0224,-1.0219,-1.0205,-1.0193,-1.0182,-1.0174,-1.0174,-1.0166,-1.0172,-1.0152,-1.0171,-1.014,-1.0159,-1.0149,-1.0146,-1.0144,-1.014,-1.0162,-1.0121,-1.0061,-1.0053,-1.0138,-1.0139,-1.0139,0,-1.023,-1.0212,-1.0191,-1.0187,-1.0182,-1.0171,-1.0168,-1.0162,-1.0153,-1.0142,-1.0135,-1.0122,-1.0113,-1.0101,-1.0102,-1.0117,-1.0069,-1.009,-1.0065,-1.0065,-1.0053,-1.0054,-0.9987,-1.0051,-1.0052,-1.0052,-1.0052,0,-1.0188,-1.0168,-1.0174,-1.0161,-1.0138,-1.0145,-1.0121,-1.0119,-1.0112,-1.0096,-1.0107,-1.0091,-1.0095,-1.0078,-1.0079,-1.005,-1.0048,-1.0045,-1.0044,-1.0042,-1.0042,-1.0034,-1.0036,-1.005,-1.005,-1.0051,-1.0051,0,-1.0144,-1.0147,-1.0124,-1.0121,-1.0119,-1.0102,-1.0097,-1.0083,-1.0083,-1.0062,-1.0058,-1.0056,-1.0037,-1.0037,-1.0015,-1.0015,-0.9979,-0.9984,-0.9982,-0.9982,-0.9956,-0.9957,-0.9881,-0.9869,-0.9944,-0.9943,-0.9942,0,-1.0115,-1.01,-1.0095,-1.0085,-1.0081,-1.0067,-1.0057,-1.0063,-1.0052,-1.004,-1.0026,-1.0008,-0.9993,-0.996,-0.9956,-0.9937,-0.994,-0.9914,-0.9937,-0.9934,-0.9935,-0.9935,-0.9931,-0.9909,-0.9908,-0.9907,-0.9907,0,-1.0063,-1.0065,-1.0053,-1.004,-1.0029,-1.0019,-1.0009,-1.0,-1.0004,-0.9991,-0.9971,-0.996,-0.9936,-0.9916,-0.9898,-0.9891,-0.9897,-0.99,-0.9892,-0.9889,-0.9886,-0.9883,-0.9967,-0.9901,-0.9902,-0.9902,-0.9902,-0.9903,-1.0024,-1.001,-1.0003,-0.9987,-0.9981,-0.9971,-0.9956,-0.9954,-0.9938,-0.992,-0.9923,-0.99,-0.9888,-0.9865,-0.9856,-0.9836,-0.9844,-0.9835,-0.9832,-0.9829,-0.9824,-0.9892,-0.9833,-0.9833,-0.9833,-0.9833,-0.9833,0,-0.997,-0.9965,-0.9951,-0.9937,-0.9924,-0.9934,-0.9922,-0.991,-0.989,-0.9879,-0.9864,-0.9839,-0.9819,-0.9812,-0.9791,-0.9775,-0.9777,-0.9769,-0.9769,-0.9766,-0.982,-0.9826,-0.9768,-0.9768,-0.9768,-0.9768,-0.9768,-0.9768,-0.994,-0.9915,-0.9915,-0.9886,-0.9881,-0.9859,-0.9852,-0.9841,-0.9832,-0.9804,-0.9788,-0.9784,-0.9773,-0.9751,-0.9731,-0.9729,-0.9719,-0.9709,-0.9708,-0.9757,-0.9763,-0.977,-0.9776,-0.9708,-0.9708,-0.9656,-0.9655,-0.9655]}]]